Location: Aultman
(40.9284°N, 81.4173°W)
Time: 08:47:49
(UTC+00:00)

Cosmos 2263 Rocket - Pass Details

Date: 24 January 2021
Orbit: 825 x 847 km, 71.0° (Epoch: 02 March)

Event Time Altitude Azimuth Distance (km) Brightness Sun altitude
Rises 22:53:54 0° 238° (WSW) 3,397 7.6 -4.4°
Reaches altitude 10° 22:56:48 10° 252° (WSW) 2,464 6.6 -4.9°
Maximum altitude 23:01:22 25° 306° (NW) 1,653 4.2 -5.7°
Drops below altitude 10° 23:05:58 10° 0° (N) 2,466 4.4 -6.5°
Sets 23:08:52 0° 14° (NNE) 3,400 5.0 -7.0°
